This demonstration page uses our WeatherBlox Daily Observations layout. Learn more.

Left ArrowRight Arrow

Hourly Observations for September 18, 2018

Temp ( °F °C ) Dew Point ( °F °C ) Humidity (%) Winds ( mph kmh ) Pressure ( in mb ) Visibility ( mi km ) Precip ( " mm )
12:53 am 00:53 Clear 74 23.3 68 20 82 82 S 9 15 29.87 1011 10 16 0.00 0.00
1:53 am 01:53 Clear 73 22.8 68 20 84 84 S 8 13 29.88 1012 10 16 0.00 0.00
2:53 am 02:53 Clear 73 22.8 68 20 84 84 S 8 13 29.86 1011 10 16 0.00 0.00
3:53 am 03:53 Clear 72 22.2 67 19.4 84 84 S 8 13 29.85 1011 10 16 0.00 0.00
4:53 am 04:53 Clear 72 22.2 67 19.4 84 84 S 9 15 29.84 1010 10 16 0.00 0.00
5:53 am 05:53 Clear 71 21.7 66 18.9 84 84 S 8 13 29.84 1011 10 16 0.00 0.00
6:53 am 06:53 Clear 70 21.1 66 18.9 87 87 S 6 9 29.85 1011 10 16 0.00 0.00
7:53 am 07:53 Partly Cloudy 70 21.1 66 18.9 87 87 NW 6 9 29.89 1012 10 16 0.00 0.00
8:53 am 08:53 Sunny 73 22.8 67 19.4 81 81 NE 3 6 29.88 1012 10 16 0.00 0.00
9:53 am 09:53 Sunny 77 25 67 19.4 71 71 Calm 29.88 1012 10 16 0.00 0.00
10:53 am 10:53 Sunny 79 26.1 67 19.4 67 67 Calm 29.90 1013 10 16 0.00 0.00
11:53 am 11:53 Mostly Cloudy 77 25 69 20.6 77 77 NNE 10 17 29.91 1013 10 16 0.00 0.00
12:53 pm 12:53 Sunny 81 27.2 68 20 65 65 undefined N/A 29.88 1012 10 16 0.00 0.00
1:53 pm 13:53 Sunny 84 28.9 68 20 59 59 NE 14 22 29.86 1011 10 16 0.00 0.00
2:53 pm 14:53 Sunny 86 30 69 20.6 57 57 NE 10 17 29.85 1011 10 16 0.00 0.00
3:53 pm 15:53 Sunny 87 30.6 69 20.6 55 55 E 12 19 29.82 1010 10 16 0.00 0.00
4:53 pm 16:53 Sunny 85 29.4 69 20.6 59 59 E 10 17 29.80 1009 10 16 0.00 0.00
5:53 pm 17:53 Sunny 84 28.9 70 21.1 63 63 E 15 24 29.80 1009 10 16 0.00 0.00
6:53 pm 18:53 Sunny 77 25 67 19.4 71 71 E 21 33 29.84 1010 10 16 0.00 0.00
7:53 pm 19:53 Clear 74 23.3 66 18.9 76 76 E 10 17 29.84 1011 10 16 0.00 0.00
8:53 pm 20:53 Clear 72 22.2 66 18.9 82 82 E 12 19 29.84 1011 10 16 0.00 0.00
9:53 pm 21:53 Clear 70 21.1 66 18.9 87 87 ESE 12 19 29.84 1011 10 16 0.00 0.00
10:53 pm 22:53 Clear 69 20.6 66 18.9 90 90 ESE 10 17 29.84 1011 10 16 0.00 0.00
11:53 pm 23:53 Clear 69 20.6 66 18.9 90 90 ESE 9 15 29.83 1010 10 16 0.00 0.00

Powered by AerisWeather